| time (UTC) | temp C | wind direction | speed KPH | gust KPH | rain 1hr cm | rain 24hr cm | rain mn cm | humidity % | barometer mb |
| 20260510104051 | 9 | 0 | 0.0 | 0.0 | 0.00 | 0.00 | 0.00 | 85 | 1014.7 |
| 20260510103549 | 9 | 0 | 0.0 | 0.0 | 0.00 | 0.00 | 0.00 | 85 | 1014.6 |
| 20260510103059 | 9 | 0 | 0.0 | 0.0 | 0.00 | 0.00 | 0.00 | 86 | 1014.6 |
| 20260510102548 | 9 | 0 | 0.0 | 0.0 | 0.00 | 0.00 | 0.00 | 85 | 1014.6 |
| 20260510102054 | 10 | 0 | 0.0 | 0.0 | 0.00 | 0.00 | 0.00 | 84 | 1014.4 |
| 20260510101551 | 10 | 0 | 0.0 | 0.0 | 0.00 | 0.00 | 0.00 | 84 | 1014.5 |
| 20260510101048 | 10 | 0 | 0.0 | 0.0 | 0.00 | 0.00 | 0.00 | 83 | 1014.5 |
| 20260510100548 | 10 | 0 | 0.0 | 0.0 | 0.00 | 0.00 | 0.00 | 82 | 1014.3 |
| 20260510100053 | 10 | 0 | 0.0 | 0.0 | 0.00 | 0.00 | 0.00 | 83 | 1014.3 |
| 20260510095548 | 10 | 0 | 0.0 | 0.0 | 0.00 | 0.00 | 0.00 | 82 | 1014.3 |
| 20260510095048 | 10 | 0 | 0.0 | 0.0 | 0.00 | 0.00 | 0.00 | 82 | 1014.2 |
| 20260510094556 | 10 | 0 | 0.0 | 0.0 | 0.00 | 0.00 | 0.00 | 82 | 1014.1 |
| 20260510094049 | 10 | 0 | 0.0 | 0.0 | 0.00 | 0.00 | 0.00 | 83 | 1014.1 |
| 20260510093549 | 10 | 0 | 0.0 | 0.0 | 0.00 | 0.00 | 0.00 | 83 | 1014.1 |
| 20260510093114 | 10 | 0 | 0.0 | 0.0 | 0.00 | 0.00 | 0.00 | 83 | 1014.1 |
| 20260510092549 | 10 | 0 | 0.0 | 3.2 | 0.00 | 0.00 | 0.00 | 83 | 1014.1 |
| 20260510092049 | 10 | 0 | 0.0 | 4.8 | 0.00 | 0.00 | 0.00 | 84 | 1013.9 |
| 20260510091551 | 10 | 0 | 0.0 | 4.8 | 0.00 | 0.00 | 0.00 | 84 | 1013.8 |
| 20260510091049 | 10 | 81 | 1.6 | 4.8 | 0.00 | 0.00 | 0.00 | 84 | 1013.7 |
| 20260510090549 | 10 | 191 | 0.0 | 3.2 | 0.00 | 0.00 | 0.00 | 82 | 1013.7 |
| 20260510090053 | 10 | 0 | 0.0 | 4.8 | 0.00 | 0.00 | 0.00 | 80 | 1013.7 |
| 20260510085551 | 10 | 0 | 0.0 | 6.4 | 0.00 | 0.00 | 0.00 | 78 | 1013.6 |
| 20260510085048 | 11 | 209 | 0.0 | 6.4 | 0.00 | 0.00 | 0.00 | 76 | 1013.6 |
| 20260510084554 | 12 | 281 | 1.6 | 8.0 | 0.00 | 0.00 | 0.00 | 74 | 1013.8 |
| 20260510084049 | 12 | 322 | 3.2 | 11.3 | 0.00 | 0.00 | 0.00 | 73 | 1013.7 |
| 20260510083548 | 13 | 298 | 4.8 | 11.3 | 0.00 | 0.00 | 0.00 | 71 | 1013.7 |
| 20260510083104 | 13 | 302 | 6.4 | 12.9 | 0.00 | 0.00 | 0.00 | 72 | 1013.7 |
| 20260510082548 | 12 | 298 | 4.8 | 12.9 | 0.00 | 0.00 | 0.00 | 76 | 1013.7 |
| 20260510082048 | 11 | 274 | 4.8 | 9.7 | 0.00 | 0.00 | 0.00 | 81 | 1013.8 |
| 20260510081552 | 10 | 293 | 3.2 | 6.4 | 0.00 | 0.00 | 0.00 | 84 | 1013.6 |
| 20260510081050 | 10 | 313 | 3.2 | 6.4 | 0.00 | 0.00 | 0.00 | 86 | 1013.6 |
| 20260510080552 | 10 | 330 | 3.2 | 6.4 | 0.00 | 0.00 | 0.00 | 87 | 1013.6 |
| 20260510080053 | 10 | 352 | 0.0 | 3.2 | 0.00 | 0.00 | 0.00 | 86 | 1013.5 |
| 20260510075547 | 10 | 0 | 0.0 | 0.0 | 0.00 | 0.00 | 0.00 | 85 | 1013.6 |
| 20260510075047 | 10 | 0 | 0.0 | 0.0 | 0.00 | 0.00 | 0.00 | 84 | 1013.6 |
| 20260510074559 | 10 | 0 | 0.0 | 1.6 | 0.00 | 0.00 | 0.00 | 83 | 1013.4 |
| 20260510074051 | 10 | 0 | 0.0 | 3.2 | 0.00 | 0.00 | 0.00 | 83 | 1013.4 |
| 20260510073549 | 10 | 0 | 0.0 | 3.2 | 0.00 | 0.00 | 0.00 | 81 | 1013.3 |
| 20260510073056 | 11 | 0 | 0.0 | 3.2 | 0.00 | 0.00 | 0.00 | 80 | 1013.3 |
| 20260510072548 | 11 | 0 | 0.0 | 0.0 | 0.00 | 0.00 | 0.00 | 78 | 1013.3 |
| 20260510072048 | 12 | 0 | 0.0 | 3.2 | 0.00 | 0.00 | 0.00 | 75 | 1013.3 |
| 20260510071550 | 13 | 0 | 0.0 | 8.0 | 0.00 | 0.00 | 0.00 | 72 | 1013.3 |
| 20260510071048 | 14 | 0 | 0.0 | 8.0 | 0.00 | 0.00 | 0.00 | 69 | 1013.3 |
| 20260510070548 | 14 | 316 | 4.8 | 8.0 | 0.00 | 0.00 | 0.00 | 67 | 1013.2 |
| 20260510070311 | 14 | 312 | 4.8 | 8.0 | 0.00 | 0.00 | 0.00 | 68 | 1013.2 |
| 20260510065551 | 14 | 298 | 4.8 | 8.0 | 0.00 | 0.00 | 0.00 | 66 | 1013.0 |
| 20260510065048 | 14 | 342 | 4.8 | 8.0 | 0.00 | 0.00 | 0.00 | 69 | 1012.9 |
| 20260510064559 | 15 | 301 | 3.2 | 9.7 | 0.00 | 0.00 | 0.00 | 65 | 1013.0 |
| 20260510064047 | 16 | 281 | 1.6 | 9.7 | 0.00 | 0.00 | 0.00 | 63 | 1013.0 |
| 20260510063548 | 16 | 304 | 4.8 | 8.0 | 0.00 | 0.00 | 0.00 | 59 | 1013.0 |
| 20260510063051 | 16 | 283 | 1.6 | 9.7 | 0.00 | 0.00 | 0.00 | 60 | 1013.0 |
| 20260510062551 | 16 | 292 | 4.8 | 9.7 | 0.00 | 0.00 | 0.00 | 60 | 1013.0 |
| 20260510062048 | 16 | 323 | 4.8 | 14.5 | 0.00 | 0.00 | 0.00 | 63 | 1012.9 |
| 20260510061550 | 16 | 313 | 4.8 | 14.5 | 0.00 | 0.00 | 0.00 | 61 | 1013.0 |
| 20260510061049 | 15 | 272 | 4.8 | 9.7 | 0.00 | 0.00 | 0.00 | 63 | 1013.0 |
| 20260510060551 | 15 | 0 | 0.0 | 4.8 | 0.00 | 0.00 | 0.00 | 67 | 1013.0 |
| 20260510060049 | 14 | 279 | 0.0 | 9.7 | 0.00 | 0.00 | 0.00 | 70 | 1013.1 |
| 20260510055547 | 13 | 0 | 1.6 | 9.7 | 0.00 | 0.00 | 0.00 | 70 | 1013.1 |
| 20260510055048 | 13 | 153 | 0.0 | 4.8 | 0.00 | 0.00 | 0.00 | 74 | 1013.0 |
| 20260510054556 | 13 | 0 | 0.0 | 4.8 | 0.00 | 0.00 | 0.00 | 74 | 1012.9 |
| 20260510054048 | 13 | 0 | 0.0 | 3.2 | 0.00 | 0.00 | 0.00 | 76 | 1012.9 |
| 20260510053548 | 13 | 0 | 0.0 | 6.4 | 0.00 | 0.00 | 0.00 | 76 | 1012.8 |
| 20260510053054 | 13 | 233 | 1.6 | 8.0 | 0.00 | 0.00 | 0.00 | 74 | 1012.8 |
| 20260510052550 | 13 | 284 | 0.0 | 8.0 | 0.00 | 0.00 | 0.00 | 76 | 1012.8 |
| 20260510052048 | 13 | 234 | 1.6 | 8.0 | 0.00 | 0.00 | 0.00 | 76 | 1012.9 |
| 20260510051606 | 12 | 0 | 0.0 | 6.4 | 0.00 | 0.00 | 0.00 | 78 | 1013.0 |
| 20260510051047 | 12 | 0 | 0.0 | 6.4 | 0.00 | 0.00 | 0.00 | 80 | 1012.9 |
| 20260510050548 | 11 | 0 | 1.6 | 6.4 | 0.00 | 0.00 | 0.00 | 83 | 1013.0 |
| 20260510050058 | 11 | 0 | 1.6 | 6.4 | 0.00 | 0.00 | 0.00 | 89 | 1013.1 |
| 20260510045548 | 11 | 327 | 0.0 | 4.8 | 0.00 | 0.00 | 0.00 | 90 | 1013.0 |
| 20260510045049 | 11 | 0 | 1.6 | 4.8 | 0.00 | 0.00 | 0.00 | 90 | 1013.0 |
| 20260510044602 | 11 | 0 | 0.0 | 0.0 | 0.00 | 0.00 | 0.00 | 90 | 1013.1 |
| 20260510044048 | 11 | 0 | 0.0 | 0.0 | 0.00 | 0.00 | 0.00 | 89 | 1013.2 |
| 20260510043548 | 11 | 0 | 0.0 | 0.0 | 0.00 | 0.00 | 0.00 | 89 | 1013.2 |
| 20260510043052 | 11 | 0 | 0.0 | 0.0 | 0.00 | 0.00 | 0.00 | 90 | 1013.2 |
| 20260510042551 | 11 | 0 | 0.0 | 0.0 | 0.00 | 0.00 | 0.00 | 90 | 1013.2 |
| 20260510042047 | 11 | 0 | 0.0 | 0.0 | 0.00 | 0.00 | 0.00 | 90 | 1013.2 |
| 20260510041552 | 11 | 0 | 0.0 | 0.0 | 0.00 | 0.00 | 0.00 | 91 | 1013.3 |
| 20260510041048 | 11 | 0 | 0.0 | 0.0 | 0.00 | 0.00 | 0.00 | 90 | 1013.3 |
| 20260510040550 | 11 | 0 | 0.0 | 0.0 | 0.00 | 0.00 | 0.00 | 90 | 1013.2 |
| 20260510040056 | 11 | 0 | 0.0 | 0.0 | 0.00 | 0.00 | 0.00 | 89 | 1013.2 |
| 20260510035550 | 11 | 0 | 0.0 | 0.0 | 0.00 | 0.00 | 0.00 | 89 | 1013.2 |
| 20260510035052 | 11 | 0 | 0.0 | 0.0 | 0.00 | 0.00 | 0.00 | 88 | 1013.2 |
| 20260510034550 | 12 | 0 | 0.0 | 0.0 | 0.00 | 0.00 | 0.00 | 87 | 1013.2 |
| 20260510034048 | 12 | 0 | 0.0 | 0.0 | 0.00 | 0.00 | 0.00 | 87 | 1013.2 |
| 20260510033548 | 12 | 0 | 0.0 | 0.0 | 0.00 | 0.00 | 0.00 | 87 | 1013.2 |
| 20260510033109 | 12 | 0 | 0.0 | 0.0 | 0.00 | 0.00 | 0.00 | 86 | 1013.1 |
| 20260510032549 | 12 | 0 | 0.0 | 0.0 | 0.00 | 0.00 | 0.00 | 85 | 1013.1 |
| 20260510032047 | 12 | 0 | 0.0 | 0.0 | 0.00 | 0.00 | 0.00 | 85 | 1013.0 |
| 20260510031551 | 13 | 0 | 0.0 | 0.0 | 0.00 | 0.00 | 0.00 | 84 | 1013.0 |
| 20260510031047 | 13 | 0 | 0.0 | 0.0 | 0.00 | 0.00 | 0.00 | 84 | 1013.1 |
| 20260510030548 | 13 | 0 | 0.0 | 0.0 | 0.00 | 0.00 | 0.00 | 83 | 1013.1 |
| 20260510025548 | 13 | 0 | 0.0 | 0.0 | 0.00 | 0.00 | 0.00 | 82 | 1013.0 |
| 20260510025049 | 14 | 0 | 0.0 | 0.0 | 0.00 | 0.00 | 0.00 | 82 | 1012.9 |
| 20260510024555 | 14 | 0 | 0.0 | 0.0 | 0.00 | 0.00 | 0.00 | 82 | 1013.0 |
| 20260510024049 | 14 | 0 | 0.0 | 1.6 | 0.00 | 0.00 | 0.00 | 82 | 1013.0 |
| 20260510023549 | 14 | 0 | 0.0 | 3.2 | 0.00 | 0.00 | 0.00 | 81 | 1012.9 |
| 20260510023055 | 14 | 0 | 0.0 | 3.2 | 0.00 | 0.00 | 0.00 | 80 | 1012.8 |
| 20260510022549 | 15 | 0 | 0.0 | 4.8 | 0.00 | 0.00 | 0.00 | 80 | 1012.7 |
| 20260510022049 | 15 | 0 | 0.0 | 4.8 | 0.00 | 0.00 | 0.00 | 80 | 1012.5 |
| 20260510021558 | 15 | 294 | 1.6 | 4.8 | 0.00 | 0.00 | 0.00 | 78 | 1012.5 |
| 20260510021048 | 15 | 320 | 1.6 | 4.8 | 0.00 | 0.00 | 0.00 | 77 | 1012.4 |
| 20260510020549 | 15 | 0 | 0.0 | 3.2 | 0.00 | 0.00 | 0.00 | 76 | 1012.4 |
| 20260510020050 | 15 | 294 | 1.6 | 6.4 | 0.00 | 0.00 | 0.00 | 76 | 1012.4 |
| 20260510015550 | 15 | 306 | 1.6 | 8.0 | 0.00 | 0.00 | 0.00 | 77 | 1012.2 |
| 20260510015049 | 16 | 314 | 3.2 | 8.0 | 0.00 | 0.00 | 0.00 | 76 | 1012.1 |
| 20260510014556 | 16 | 313 | 4.8 | 8.0 | 0.00 | 0.00 | 0.00 | 75 | 1011.9 |
| 20260510014049 | 16 | 299 | 3.2 | 6.4 | 0.00 | 0.00 | 0.00 | 74 | 1011.7 |
| 20260510013549 | 16 | 288 | 3.2 | 6.4 | 0.00 | 0.00 | 0.00 | 74 | 1011.7 |
| 20260510013051 | 16 | 301 | 1.6 | 4.8 | 0.00 | 0.00 | 0.00 | 74 | 1011.6 |
| 20260510012552 | 16 | 298 | 3.2 | 4.8 | 0.00 | 0.00 | 0.00 | 74 | 1011.6 |
| 20260510012052 | 16 | 317 | 3.2 | 4.8 | 0.00 | 0.00 | 0.00 | 73 | 1011.5 |
| 20260510011552 | 17 | 296 | 3.2 | 4.8 | 0.00 | 0.00 | 0.00 | 71 | 1011.6 |
| 20260510011049 | 17 | 290 | 1.6 | 4.8 | 0.00 | 0.00 | 0.00 | 70 | 1011.5 |
| 20260510010548 | 17 | 0 | 1.6 | 4.8 | 0.00 | 0.00 | 0.00 | 69 | 1011.5 |
| 20260510010050 | 17 | 303 | 1.6 | 4.8 | 0.00 | 0.00 | 0.00 | 68 | 1011.4 |
| 20260510005551 | 18 | 321 | 1.6 | 4.8 | 0.00 | 0.00 | 0.00 | 67 | 1011.3 |
| 20260510005049 | 17 | 313 | 3.2 | 4.8 | 0.00 | 0.00 | 0.00 | 67 | 1011.1 |
| 20260510004552 | 18 | 295 | 1.6 | 6.4 | 0.00 | 0.00 | 0.00 | 66 | 1011.1 |
| 20260510004049 | 18 | 295 | 1.6 | 6.4 | 0.00 | 0.00 | 0.00 | 66 | 1010.9 |
| 20260510003549 | 18 | 303 | 1.6 | 6.4 | 0.00 | 0.00 | 0.00 | 64 | 1010.9 |
| 20260510003054 | 18 | 0 | 1.6 | 3.2 | 0.00 | 0.00 | 0.00 | 64 | 1010.6 |
| 20260510002549 | 18 | 305 | 1.6 | 4.8 | 0.00 | 0.00 | 0.00 | 63 | 1010.6 |
| 20260510002048 | 19 | 316 | 0.0 | 4.8 | 0.00 | 0.00 | 0.00 | 62 | 1010.6 |
| 20260510001551 | 20 | 316 | 0.0 | 4.8 | 0.00 | 0.00 | 0.00 | 61 | 1010.6 |
| 20260510001049 | 20 | 283 | 0.0 | 3.2 | 0.00 | 0.00 | 0.00 | 59 | 1010.6 |
| 20260510000548 | 20 | 128 | 0.0 | 4.8 | 0.00 | 0.00 | 0.00 | 58 | 1010.5 |
| 20260510000050 | 20 | 0 | 0.0 | 4.8 | 0.00 | 0.00 | 0.00 | 57 | 1010.4 |
| 20260509235550 | 21 | 155 | 1.6 | 6.4 | 0.00 | 0.00 | 0.00 | 56 | 1010.3 |
| 20260509235049 | 21 | 177 | 1.6 | 6.4 | 0.00 | 0.00 | 0.00 | 56 | 1010.3 |
| 20260509234550 | 21 | 204 | 1.6 | 8.0 | 0.00 | 0.00 | 0.00 | 55 | 1010.3 |
| 20260509234049 | 21 | 0 | 1.6 | 8.0 | 0.00 | 0.00 | 0.00 | 55 | 1010.2 |
| 20260509233551 | 21 | 167 | 1.6 | 8.0 | 0.00 | 0.00 | 0.00 | 54 | 1010.2 |
| 20260509233050 | 21 | 188 | 1.6 | 8.0 | 0.00 | 0.00 | 0.00 | 53 | 1010.2 |
| 20260509232548 | 22 | 161 | 1.6 | 8.0 | 0.00 | 0.00 | 0.00 | 53 | 1010.2 |
| 20260509232048 | 22 | 0 | 1.6 | 8.0 | 0.00 | 0.00 | 0.00 | 53 | 1010.2 |
| 20260509231550 | 22 | 193 | 1.6 | 9.7 | 0.00 | 0.00 | 0.00 | 53 | 1010.2 |
| 20260509231048 | 22 | 175 | 4.8 | 12.9 | 0.00 | 0.00 | 0.00 | 53 | 1010.2 |
| 20260509230547 | 22 | 172 | 3.2 | 12.9 | 0.00 | 0.00 | 0.00 | 52 | 1010.2 |
| 20260509230058 | 22 | 226 | 4.8 | 17.7 | 0.00 | 0.00 | 0.00 | 52 | 1010.2 |
| 20260509225549 | 22 | 223 | 4.8 | 17.7 | 0.00 | 0.00 | 0.00 | 51 | 1010.1 |
| 20260509225050 | 22 | 148 | 4.8 | 16.1 | 0.00 | 0.00 | 0.00 | 51 | 1010.1 |
| 20260509224558 | 22 | 126 | 3.2 | 16.1 | 0.00 | 0.00 | 0.00 | 52 | 1010.1 |
| 20260509224052 | 22 | 196 | 4.8 | 12.9 | 0.00 | 0.00 | 0.00 | 51 | 1010.2 |
| 20260509223548 | 22 | 220 | 1.6 | 11.3 | 0.00 | 0.00 | 0.00 | 51 | 1010.2 |
| 20260509223052 | 22 | 136 | 3.2 | 14.5 | 0.00 | 0.00 | 0.00 | 51 | 1010.3 |
| 20260509222549 | 22 | 222 | 1.6 | 14.5 | 0.00 | 0.00 | 0.00 | 50 | 1010.3 |
| 20260509222047 | 22 | 158 | 3.2 | 14.5 | 0.00 | 0.00 | 0.00 | 50 | 1010.2 |
| 20260509221550 | 22 | 192 | 3.2 | 16.1 | 0.00 | 0.00 | 0.00 | 51 | 1010.3 |
| 20260509221047 | 22 | 159 | 1.6 | 16.1 | 0.00 | 0.00 | 0.00 | 51 | 1010.1 |
| 20260509220548 | 22 | 111 | 3.2 | 16.1 | 0.00 | 0.00 | 0.00 | 50 | 1010.2 |
| 20260509220052 | 22 | 195 | 4.8 | 9.7 | 0.00 | 0.00 | 0.00 | 50 | 1010.2 |
| 20260509215548 | 22 | 115 | 1.6 | 11.3 | 0.00 | 0.00 | 0.00 | 51 | 1010.1 |
| 20260509215049 | 22 | 283 | 3.2 | 11.3 | 0.00 | 0.00 | 0.00 | 52 | 1010.2 |
| 20260509214559 | 22 | 50 | 4.8 | 11.3 | 0.00 | 0.00 | 0.00 | 50 | 1010.2 |
| 20260509214048 | 22 | 351 | 4.8 | 14.5 | 0.00 | 0.00 | 0.00 | 50 | 1010.0 |
| 20260509213550 | 22 | 69 | 3.2 | 14.5 | 0.00 | 0.00 | 0.00 | 50 | 1010.0 |
| 20260509213126 | 22 | 107 | 4.8 | 16.1 | 0.00 | 0.00 | 0.00 | 51 | 1010.0 |
| 20260509212549 | 22 | 147 | 6.4 | 16.1 | 0.00 | 0.00 | 0.00 | 51 | 1010.1 |
| 20260509212048 | 22 | 126 | 8.0 | 16.1 | 0.00 | 0.00 | 0.00 | 50 | 1010.1 |
| 20260509211553 | 22 | 132 | 4.8 | 12.9 | 0.00 | 0.00 | 0.00 | 51 | 1010.0 |
| 20260509211048 | 22 | 226 | 3.2 | 12.9 | 0.00 | 0.00 | 0.00 | 50 | 1009.9 |
| 20260509210549 | 22 | 352 | 1.6 | 8.0 | 0.00 | 0.00 | 0.00 | 50 | 1010.0 |
| 20260509205549 | 22 | 302 | 1.6 | 11.3 | 0.00 | 0.00 | 0.00 | 49 | 1010.0 |
| 20260509205047 | 22 | 288 | 3.2 | 11.3 | 0.00 | 0.00 | 0.00 | 51 | 1010.0 |
| 20260509204550 | 22 | 198 | 3.2 | 14.5 | 0.00 | 0.00 | 0.00 | 49 | 1009.8 |
| 20260509204049 | 22 | 132 | 3.2 | 19.3 | 0.00 | 0.00 | 0.00 | 49 | 1009.8 |
| 20260509203548 | 22 | 123 | 4.8 | 19.3 | 0.00 | 0.00 | 0.00 | 48 | 1009.6 |
| 20260509203053 | 22 | 185 | 12.9 | 19.3 | 0.00 | 0.00 | 0.00 | 47 | 1009.6 |
| 20260509202549 | 22 | 147 | 4.8 | 16.1 | 0.00 | 0.00 | 0.00 | 49 | 1009.7 |
| 20260509202048 | 22 | 176 | 8.0 | 16.1 | 0.00 | 0.00 | 0.00 | 48 | 1009.7 |
| 20260509201553 | 22 | 148 | 4.8 | 12.9 | 0.00 | 0.00 | 0.00 | 46 | 1009.8 |
| 20260509201048 | 22 | 128 | 3.2 | 17.7 | 0.00 | 0.00 | 0.00 | 46 | 1009.8 |
| 20260509200550 | 23 | 327 | 4.8 | 19.3 | 0.00 | 0.00 | 0.00 | 45 | 1009.8 |
| 20260509200103 | 23 | 169 | 8.0 | 19.3 | 0.00 | 0.00 | 0.00 | 45 | 1009.9 |
| 20260509195548 | 23 | 258 | 8.0 | 17.7 | 0.00 | 0.00 | 0.00 | 45 | 1009.9 |
| 20260509195052 | 23 | 211 | 3.2 | 19.3 | 0.00 | 0.00 | 0.00 | 46 | 1009.8 |
| 20260509194549 | 22 | 35 | 4.8 | 19.3 | 0.00 | 0.00 | 0.00 | 48 | 1009.9 |
| 20260509194048 | 22 | 171 | 6.4 | 19.3 | 0.00 | 0.00 | 0.00 | 48 | 1010.2 |
| 20260509193548 | 21 | 138 | 1.6 | 12.9 | 0.00 | 0.00 | 0.00 | 50 | 1010.3 |
| 20260509193049 | 21 | 205 | 3.2 | 19.3 | 0.00 | 0.00 | 0.00 | 52 | 1010.4 |
| 20260509192550 | 21 | 198 | 6.4 | 19.3 | 0.00 | 0.00 | 0.00 | 49 | 1010.4 |
| 20260509192049 | 21 | 167 | 4.8 | 19.3 | 0.00 | 0.00 | 0.00 | 51 | 1010.4 |
| 20260509191553 | 21 | 173 | 8.0 | 17.7 | 0.00 | 0.00 | 0.00 | 49 | 1010.5 |
| 20260509191048 | 22 | 153 | 6.4 | 16.1 | 0.00 | 0.00 | 0.00 | 49 | 1010.6 |
| 20260509190548 | 22 | 142 | 4.8 | 19.3 | 0.00 | 0.00 | 0.00 | 49 | 1010.6 |
| 20260509190056 | 22 | 165 | 8.0 | 19.3 | 0.00 | 0.00 | 0.00 | 48 | 1010.6 |
| 20260509185548 | 22 | 165 | 9.7 | 19.3 | 0.00 | 0.00 | 0.00 | 48 | 1010.7 |
| 20260509185048 | 22 | 148 | 6.4 | 16.1 | 0.00 | 0.00 | 0.00 | 48 | 1010.7 |
| 20260509184558 | 22 | 238 | 3.2 | 17.7 | 0.00 | 0.00 | 0.00 | 48 | 1010.9 |
| 20260509184049 | 23 | 190 | 4.8 | 17.7 | 0.00 | 0.00 | 0.00 | 45 | 1010.9 |
| 20260509183548 | 22 | 232 | 6.4 | 17.7 | 0.00 | 0.00 | 0.00 | 48 | 1010.7 |
| 20260509183051 | 22 | 282 | 4.8 | 17.7 | 0.00 | 0.00 | 0.00 | 48 | 1010.9 |
| 20260509182550 | 22 | 148 | 8.0 | 17.7 | 0.00 | 0.00 | 0.00 | 47 | 1010.9 |
| 20260509182047 | 21 | 163 | 6.4 | 20.9 | 0.00 | 0.00 | 0.00 | 51 | 1011.1 |
| 20260509181557 | 21 | 225 | 8.0 | 20.9 | 0.00 | 0.00 | 0.00 | 49 | 1011.2 |
| 20260509181049 | 22 | 96 | 6.4 | 20.9 | 0.00 | 0.00 | 0.00 | 47 | 1011.2 |
| 20260509180549 | 22 | 149 | 8.0 | 20.9 | 0.00 | 0.00 | 0.00 | 49 | 1011.5 |
| 20260509180051 | 22 | 188 | 4.8 | 17.7 | 0.00 | 0.00 | 0.00 | 51 | 1011.5 |
| 20260509175548 | 21 | 331 | 8.0 | 17.7 | 0.00 | 0.00 | 0.00 | 51 | 1011.7 |
| 20260509175048 | 21 | 208 | 4.8 | 16.1 | 0.00 | 0.00 | 0.00 | 53 | 1011.7 |
| 20260509174554 | 21 | 107 | 6.4 | 16.1 | 0.00 | 0.00 | 0.00 | 50 | 1011.7 |
| 20260509174048 | 21 | 360 | 6.4 | 17.7 | 0.00 | 0.00 | 0.00 | 54 | 1011.7 |
| 20260509173547 | 21 | 113 | 6.4 | 27.4 | 0.00 | 0.00 | 0.00 | 55 | 1011.8 |
| 20260509173050 | 20 | 192 | 9.7 | 27.4 | 0.00 | 0.00 | 0.00 | 57 | 1011.8 |
| 20260509172549 | 20 | 165 | 8.0 | 25.7 | 0.00 | 0.00 | 0.00 | 55 | 1012.0 |
| 20260509172052 | 21 | 280 | 6.4 | 20.9 | 0.00 | 0.00 | 0.00 | 56 | 1012.1 |
| 20260509171553 | 21 | 180 | 8.0 | 25.7 | 0.00 | 0.00 | 0.00 | 56 | 1012.0 |
| 20260509171047 | 21 | 94 | 4.8 | 25.7 | 0.00 | 0.00 | 0.00 | 56 | 1012.0 |
| 20260509170548 | 20 | 134 | 12.9 | 30.6 | 0.00 | 0.00 | 0.00 | 57 | 1012.2 |
| 20260509170052 | 20 | 139 | 12.9 | 30.6 | 0.00 | 0.00 | 0.00 | 57 | 1012.1 |
| 20260509165548 | 20 | 165 | 8.0 | 19.3 | 0.00 | 0.00 | 0.00 | 58 | 1012.1 |
| 20260509165047 | 20 | 180 | 8.0 | 25.7 | 0.00 | 0.00 | 0.00 | 59 | 1011.9 |
| 20260509164553 | 20 | 157 | 8.0 | 29.0 | 0.00 | 0.00 | 0.00 | 57 | 1012.0 |
| 20260509164047 | 20 | 91 | 11.3 | 29.0 | 0.00 | 0.00 | 0.00 | 58 | 1011.9 |
| 20260509163548 | 20 | 155 | 11.3 | 24.1 | 0.00 | 0.00 | 0.00 | 57 | 1012.1 |
| 20260509163051 | 20 | 128 | 9.7 | 24.1 | 0.00 | 0.00 | 0.00 | 58 | 1012.2 |
| 20260509162551 | 20 | 173 | 6.4 | 16.1 | 0.00 | 0.00 | 0.00 | 60 | 1012.1 |
| 20260509162047 | 19 | 30 | 4.8 | 14.5 | 0.00 | 0.00 | 0.00 | 58 | 1012.1 |
| 20260509161549 | 19 | 211 | 4.8 | 14.5 | 0.00 | 0.00 | 0.00 | 57 | 1012.1 |
| 20260509161052 | 19 | 186 | 4.8 | 20.9 | 0.00 | 0.00 | 0.00 | 57 | 1012.0 |
| 20260509160550 | 19 | 113 | 6.4 | 20.9 | 0.00 | 0.00 | 0.00 | 59 | 1012.0 |
| 20260509160051 | 19 | 294 | 4.8 | 14.5 | 0.00 | 0.00 | 0.00 | 56 | 1012.0 |
| 20260509155548 | 19 | 167 | 4.8 | 20.9 | 0.00 | 0.00 | 0.00 | 57 | 1012.1 |
| 20260509155047 | 19 | 161 | 4.8 | 20.9 | 0.00 | 0.00 | 0.00 | 56 | 1012.0 |
| 20260509154551 | 20 | 352 | 4.8 | 17.7 | 0.00 | 0.00 | 0.00 | 55 | 1012.1 |
| 20260509154048 | 20 | 307 | 3.2 | 14.5 | 0.00 | 0.00 | 0.00 | 57 | 1012.2 |
| 20260509153554 | 20 | 0 | 3.2 | 14.5 | 0.00 | 0.00 | 0.00 | 57 | 1012.2 |
| 20260509153102 | 19 | 161 | 3.2 | 14.5 | 0.00 | 0.00 | 0.00 | 60 | 1012.1 |
| 20260509152550 | 18 | 158 | 1.6 | 11.3 | 0.00 | 0.00 | 0.00 | 58 | 1012.2 |
| 20260509152051 | 18 | 321 | 3.2 | 8.0 | 0.00 | 0.00 | 0.00 | 58 | 1012.1 |
| 20260509151554 | 18 | 157 | 3.2 | 9.7 | 0.00 | 0.00 | 0.00 | 61 | 1012.4 |
| 20260509151048 | 18 | 339 | 3.2 | 11.3 | 0.00 | 0.00 | 0.00 | 60 | 1012.4 |
| 20260509150551 | 17 | 209 | 4.8 | 12.9 | 0.00 | 0.00 | 0.00 | 59 | 1012.5 |
| 20260509150052 | 17 | 0 | 4.8 | 12.9 | 0.00 | 0.00 | 0.00 | 59 | 1012.5 |
| 20260509145553 | 17 | 295 | 6.4 | 12.9 | 0.00 | 0.00 | 0.00 | 59 | 1012.5 |
| 20260509145050 | 17 | 311 | 3.2 | 17.7 | 0.00 | 0.00 | 0.00 | 60 | 1012.5 |
| 20260509144558 | 17 | 292 | 6.4 | 17.7 | 0.00 | 0.00 | 0.00 | 58 | 1012.5 |
| 20260509144053 | 17 | 276 | 3.2 | 14.5 | 0.00 | 0.00 | 0.00 | 59 | 1012.6 |
| 20260509143550 | 17 | 0 | 6.4 | 14.5 | 0.00 | 0.00 | 0.00 | 61 | 1012.6 |
| 20260509143055 | 17 | 315 | 4.8 | 9.7 | 0.00 | 0.00 | 0.00 | 61 | 1012.4 |
| 20260509142550 | 16 | 315 | 1.6 | 8.0 | 0.00 | 0.00 | 0.00 | 61 | 1012.5 |
| 20260509142050 | 16 | 0 | 0.0 | 0.0 | 0.00 | 0.00 | 0.00 | 64 | 1012.5 |
| 20260509141552 | 16 | 0 | 0.0 | 0.0 | 0.00 | 0.00 | 0.00 | 63 | 1012.5 |
| 20260509141052 | 16 | 0 | 0.0 | 0.0 | 0.00 | 0.00 | 0.00 | 64 | 1012.6 |
| 20260509140548 | 15 | 0 | 0.0 | 6.4 | 0.00 | 0.00 | 0.00 | 63 | 1012.6 |
| 20260509140104 | 15 | 0 | 0.0 | 6.4 | 0.00 | 0.00 | 0.00 | 64 | 1012.7 |
| 20260509135548 | 15 | 182 | 1.6 | 8.0 | 0.00 | 0.00 | 0.00 | 64 | 1012.8 |
| 20260509135048 | 15 | 161 | 3.2 | 8.0 | 0.00 | 0.00 | 0.00 | 65 | 1013.0 |
| 20260509134551 | 15 | 0 | 0.0 | 4.8 | 0.00 | 0.00 | 0.00 | 66 | 1012.9 |
| 20260509134050 | 14 | 298 | 1.6 | 4.8 | 0.00 | 0.00 | 0.00 | 66 | 1013.0 |
| 20260509133548 | 14 | 32 | 1.6 | 4.8 | 0.00 | 0.00 | 0.00 | 65 | 1012.9 |
| 20260509133053 | 14 | 29 | 1.6 | 4.8 | 0.00 | 0.00 | 0.00 | 64 | 1012.9 |
| 20260509132554 | 14 | 269 | 0.0 | 3.2 | 0.00 | 0.00 | 0.00 | 67 | 1013.0 |
| 20260509132051 | 13 | 0 | 0.0 | 4.8 | 0.00 | 0.00 | 0.00 | 68 | 1013.0 |
| 20260509131550 | 13 | 0 | 1.6 | 4.8 | 0.00 | 0.00 | 0.00 | 67 | 1013.1 |
| 20260509131050 | 13 | 0 | 0.0 | 3.2 | 0.00 | 0.00 | 0.00 | 68 | 1013.2 |
| 20260509130551 | 13 | 0 | 0.0 | 4.8 | 0.00 | 0.00 | 0.00 | 71 | 1013.2 |
| 20260509130053 | 13 | 0 | 0.0 | 6.4 | 0.00 | 0.00 | 0.00 | 70 | 1013.2 |
| 20260509125550 | 13 | 294 | 1.6 | 6.4 | 0.00 | 0.00 | 0.00 | 69 | 1013.3 |
| 20260509125048 | 13 | 294 | 3.2 | 6.4 | 0.00 | 0.00 | 0.00 | 69 | 1013.4 |
| 20260509124552 | 13 | 309 | 3.2 | 8.0 | 0.00 | 0.00 | 0.00 | 69 | 1013.4 |
| 20260509124048 | 13 | 279 | 3.2 | 8.0 | 0.00 | 0.00 | 0.00 | 69 | 1013.4 |
| 20260509123552 | 13 | 306 | 4.8 | 8.0 | 0.00 | 0.00 | 0.00 | 68 | 1013.4 |
| 20260509123049 | 13 | 332 | 1.6 | 4.8 | 0.00 | 0.00 | 0.00 | 69 | 1013.4 |
| 20260509122551 | 13 | 0 | 1.6 | 4.8 | 0.00 | 0.00 | 0.00 | 69 | 1013.3 |
| 20260509122047 | 12 | 317 | 1.6 | 4.8 | 0.00 | 0.00 | 0.00 | 69 | 1013.3 |
| 20260509121551 | 12 | 319 | 0.0 | 3.2 | 0.00 | 0.00 | 0.00 | 71 | 1013.3 |
| 20260509121049 | 12 | 329 | 0.0 | 1.6 | 0.00 | 0.00 | 0.00 | 72 | 1013.5 |
| 20260509120549 | 12 | 0 | 0.0 | 0.0 | 0.00 | 0.00 | 0.00 | 77 | 1013.4 |
| 20260509120104 | 12 | 0 | 0.0 | 0.0 | 0.00 | 0.00 | 0.00 | 80 | 1013.4 |
| 20260509115548 | 11 | 0 | 0.0 | 0.0 | 0.00 | 0.00 | 0.00 | 81 | 1013.3 |
| 20260509115048 | 11 | 0 | 0.0 | 0.0 | 0.00 | 0.00 | 0.00 | 81 | 1013.3 |
| 20260509114549 | 11 | 0 | 0.0 | 3.2 | 0.00 | 0.00 | 0.00 | 81 | 1013.3 |
| 20260509114048 | 11 | 0 | 0.0 | 4.8 | 0.00 | 0.00 | 0.00 | 81 | 1013.3 |
| 20260509113548 | 10 | 308 | 1.6 | 4.8 | 0.00 | 0.00 | 0.00 | 80 | 1013.3 |
| 20260509113055 | 10 | 311 | 1.6 | 4.8 | 0.00 | 0.00 | 0.00 | 81 | 1013.3 |
| 20260509112548 | 10 | 337 | 0.0 | 4.8 | 0.00 | 0.00 | 0.00 | 80 | 1013.2 |
| 20260509112048 | 10 | 0 | 0.0 | 0.0 | 0.00 | 0.00 | 0.00 | 81 | 1013.2 |
| 20260509111552 | 10 | 0 | 0.0 | 0.0 | 0.00 | 0.00 | 0.00 | 79 | 1013.2 |
| 20260509111048 | 10 | 0 | 0.0 | 0.0 | 0.00 | 0.00 | 0.00 | 79 | 1013.1 |
| 20260509110549 | 10 | 0 | 0.0 | 0.0 | 0.00 | 0.00 | 0.00 | 79 | 1013.2 |
| 20260509110056 | 10 | 0 | 0.0 | 0.0 | 0.00 | 0.00 | 0.00 | 79 | 1013.1 |
| 20260509105551 | 10 | 0 | 0.0 | 0.0 | 0.00 | 0.00 | 0.00 | 78 | 1013.1 |
| 20260509105049 | 10 | 0 | 0.0 | 0.0 | 0.00 | 0.00 | 0.00 | 78 | 1013.1 |
| 20260509104548 | 10 | 0 | 0.0 | 0.0 | 0.00 | 0.00 | 0.00 | 77 | 1012.9 |